GFSFLT1_prec_cthk_225.txt.gz
RH
17 18 19 19 19 19 18 17 15 17 22 24 24 26 28 30 29 29 30 30 32 35 36 40 42 42 43 44 45 47 48 50
16 18 18 18 18 16 15 14 15 18 21 22 23 23 27 30 30 30 31 31 33 36 38 41 43 44 47 51 53 54 54 55
15 15 15 15 15 14 13 14 16 17 20 21 23 24 27 30 32 32 31 32 35 37 39 41 45 48 50 53 55 57 59 60
13 12 12 14 14 15 15 15 18 20 21 25 26 28 30 31 32 33 32 34 37 38 40 44 48 50 51 55 56 58 62 64
14 15 16 16 16 18 18 19 20 23 21 23 25 26 28 27 30 34 36 34 37 40 42 46 49 51 54 56 60 61 64 67
24 24 23 24 25 23 23 24 24 26 23 22 27 29 31 34 33 35 38 36 37 39 44 48 51 53 55 59 60 64 69 68
26 27 29 26 26 28 26 28 28 28 29 29 30 30 33 37 42 46 42 40 41 45 48 49 54 56 58 59 66 67 67 63
26 28 28 27 26 25 24 26 29 29 31 31 35 37 36 40 42 45 49 48 47 49 52 51 59 59 61 61 66 65 61 49
20 26 28 28 27 26 25 26 29 31 33 35 40 40 43 50 47 48 53 57 60 61 57 57 62 63 65 65 67 60 54 50
13 17 21 23 24 23 25 26 26 28 32 37 41 42 50 50 53 51 57 62 63 60 55 58 63 69 67 69 60 59 51 54
10 12 15 16 16 19 20 22 25 28 35 38 40 48 51 55 58 59 59 57 50 50 54 62 67 68 65 69 63 53 50 44
13 15 14 14 14 15 18 23 27 30 33 38 45 50 51 55 54 55 56 54 55 55 64 65 72 70 68 60 52 48 46 48
17 20 22 18 15 17 21 24 28 32 37 43 48 50 52 52 54 59 58 57 61 71 66 78 76 74 59 58 49 51 53 52
22 25 27 24 23 23 26 28 32 34 39 41 43 45 45 49 52 56 57 61 59 78 80 73 75 67 61 56 52 55 54 55
29 28 30 31 28 26 30 33 34 38 39 39 42 46 47 50 53 52 55 54 70 62 72 70 65 59 59 56 58 54 56 57
36 33 38 34 29 27 30 34 35 40 44 44 48 52 53 55 54 53 53 57 59 66 65 62 57 58 58 58 58 58 60 59
37 36 38 42 38 36 36 35 39 44 45 47 51 55 56 56 53 53 55 54 57 61 61 55 58 56 56 58 60 60 61 62
39 36 36 44 42 42 39 38 41 45 50 51 51 52 55 56 56 55 52 54 55 56 52 53 52 56 58 59 61 61 64 65
45 45 41 38 49 52 43 45 46 48 49 53 56 54 58 59 56 57 54 52 53 51 49 49 51 56 61 61 63 66 68 67

GFSFLT1_prec_cthk_228.txt.gz
RH
20 18 18 17 21 28 30 25 22 22 22 22 23 26 25 25 26 26 27 28 29 30 32 35 38 40 43 44 45 46 46 46
19 19 19 18 17 18 20 22 22 22 21 22 21 22 25 25 26 27 29 29 30 31 32 36 37 40 43 46 48 48 50 54
19 19 19 19 18 17 18 19 20 19 20 20 22 25 27 29 29 28 31 31 31 31 32 36 38 42 44 47 50 51 52 54
15 17 18 18 18 17 17 17 17 18 17 19 23 30 32 31 29 27 30 33 32 32 33 36 39 42 45 47 51 51 52 54
13 12 13 16 17 16 16 15 16 16 18 20 21 24 27 28 30 31 32 37 36 35 36 38 41 44 48 50 53 53 57 58
13 13 14 13 13 13 15 18 21 22 22 22 24 27 29 31 34 36 39 41 39 38 39 41 44 48 51 53 55 58 58 61
19 17 19 18 18 18 21 22 24 28 29 28 28 29 29 30 38 41 42 45 45 46 45 44 50 51 53 58 59 56 57 61
23 23 22 24 27 27 28 28 28 29 30 32 33 32 36 34 37 43 48 52 52 51 51 51 49 51 57 62 59 61 60 69
24 23 22 24 27 28 29 29 29 29 29 28 32 33 35 38 42 46 55 57 57 55 53 58 64 68 69 68 63 67 70 68
13 19 23 25 28 29 29 28 28 29 29 28 30 32 34 39 46 54 58 60 59 61 59 65 70 69 68 61 62 66 71 74
10 10 12 16 20 21 23 23 24 25 28 28 30 34 38 42 47 60 60 61 62 61 61 61 67 60 59 71 67 75 67 65
16 12 11 11 13 16 17 18 19 20 22 27 31 33 41 46 54 61 60 62 64 63 65 66 64 64 71 74 76 75 68 62
24 20 17 17 16 18 18 16 16 16 19 23 28 36 44 49 58 57 59 61 62 64 65 70 62 60 84 76 81 67 66 61
28 26 24 21 20 21 23 21 20 22 27 30 34 38 44 51 57 57 56 58 59 62 59 57 64 76 88 87 73 59 62 62
32 30 29 24 24 26 25 26 27 32 34 35 38 41 47 55 56 55 55 57 61 57 52 52 65 87 85 63 67 58 62 58
35 33 33 32 28 28 32 31 32 37 41 42 45 48 51 58 59 57 57 63 60 54 53 61 64 67 59 76 61 61 60 56
39 38 36 38 36 33 37 37 36 39 44 48 49 50 55 60 57 58 63 63 59 59 56 62 56 65 61 53 56 58 56 57
44 43 40 41 41 38 41 44 42 43 44 49 53 54 60 62 62 60 60 62 60 57 56 56 60 49 46 48 49 50 52 54
43 45 43 43 44 45 40 47 47 45 44 46 48 53 56 61 60 58 61 65 64 63 61 59 58 56 51 51 52 52 54 56

GFSFLT1_prec_cthk_234.txt.gz
RH
23 31 42 43 39 38 37 34 32 28 26 25 26 26 27 28 29 27 27 26 27 28 33 36 32 35 38 40 43 45 49 54
20 27 34 45 45 45 41 42 37 34 30 28 27 26 28 29 29 29 30 29 27 28 31 34 33 35 37 40 42 44 45 47
17 20 27 28 29 34 37 39 38 35 36 35 35 35 34 31 29 28 32 34 31 29 30 35 34 37 38 38 41 42 43 46
12 16 21 23 25 24 22 22 27 29 27 32 34 36 36 35 31 30 30 34 37 33 32 35 36 36 39 40 41 42 44 47
12 12 15 18 19 21 20 21 21 22 22 26 26 26 30 27 29 32 31 33 38 40 36 34 34 36 39 41 42 44 48 48
14 13 13 13 17 19 19 19 20 20 21 21 24 24 25 27 27 29 30 32 37 43 44 38 39 41 40 42 43 44 46 50
17 14 14 13 13 16 16 17 19 20 20 22 22 22 23 27 28 27 30 32 33 39 44 43 41 43 45 47 48 48 52 53
26 21 18 14 12 13 14 16 17 18 18 19 23 22 23 26 29 30 34 34 32 40 44 47 49 51 52 52 54 57 60 61
28 26 27 22 18 16 15 14 15 22 22 21 25 28 29 28 32 33 35 37 34 38 42 49 54 57 61 62 62 65 67 69
29 28 27 26 25 25 22 20 22 25 30 24 23 23 24 22 30 37 40 42 40 41 46 49 59 63 64 62 61 68 71 73
25 26 26 27 28 28 27 27 27 30 33 34 33 25 24 24 27 31 39 45 45 49 52 55 60 63 64 66 70 72 73 74
26 25 23 22 22 25 29 31 29 27 27 29 34 37 35 37 34 34 38 41 45 47 51 57 60 65 66 67 68 70 73 72
28 27 26 26 25 23 21 24 29 32 32 30 29 29 32 32 31 32 35 40 42 46 50 56 60 62 64 67 70 72 70 69
35 33 33 31 29 28 28 26 23 23 27 28 25 26 31 33 35 38 37 44 46 48 51 56 58 60 64 68 72 69 70 70
51 46 42 38 34 32 32 31 27 25 25 27 27 30 29 29 30 32 32 35 39 43 50 53 59 63 65 69 70 67 68 75
60 55 48 45 39 37 36 36 34 30 28 25 24 28 30 28 25 25 27 32 36 41 50 56 59 63 67 68 67 68 70 66
55 56 52 49 47 44 43 42 41 37 34 34 28 32 35 37 37 35 35 37 42 50 56 58 61 64 68 73 73 69 67 69
47 46 50 51 52 47 42 43 43 43 39 37 36 33 41 45 45 43 44 46 53 55 58 61 66 70 78 76 72 72 70 66
39 42 46 43 44 49 46 45 45 45 45 41 42 41 45 49 51 52 54 57 58 61 67 69 69 76 80 77 76 74 67 66

GFSFLT1_prec_cthk_237.txt.gz
RH
13 16 33 43 47 44 39 34 37 34 32 31 32 30 30 31 32 32 32 30 30 31 33 34 35 36 38 39 40 42 44 49
14 16 26 42 49 48 45 37 37 36 32 30 29 29 31 31 31 33 33 33 32 33 34 33 34 35 36 37 39 42 44 47
13 18 21 38 50 56 51 44 38 37 38 34 32 32 32 32 32 31 31 31 33 35 35 36 34 36 37 37 37 40 42 46
11 15 22 25 39 53 59 53 48 45 43 42 42 42 41 39 33 33 33 33 33 35 39 41 39 38 39 38 39 40 39 42
15 14 17 23 28 36 42 50 52 50 48 46 43 41 41 39 37 37 37 34 34 36 39 41 45 41 40 39 39 40 41 41
13 18 18 18 23 30 36 37 35 37 39 38 35 32 30 31 34 38 37 36 33 35 37 41 43 45 42 43 42 42 42 46
16 15 18 19 17 20 25 27 31 30 28 26 24 23 23 26 30 34 34 35 34 32 33 38 42 45 47 46 46 43 44 48
22 18 15 13 14 14 15 22 24 24 22 21 22 21 25 27 28 31 32 32 31 28 31 35 40 48 52 52 51 48 48 51
37 29 21 22 21 17 16 16 17 19 22 23 22 24 25 26 27 29 33 30 27 29 33 38 42 50 52 52 51 52 60 63
43 44 36 30 27 24 24 20 16 16 17 22 20 21 24 26 25 24 29 29 30 32 38 41 44 48 53 55 59 62 66 66
34 36 37 36 33 29 31 31 29 26 28 24 25 27 27 28 33 34 32 33 32 35 40 43 46 51 59 61 61 63 67 67
31 29 28 28 30 31 31 30 33 31 27 24 28 32 31 33 38 38 36 36 34 37 42 46 50 55 59 62 64 67 68 71
33 32 30 29 27 27 30 30 34 38 38 35 32 28 31 35 37 40 39 38 33 37 43 46 53 57 59 62 64 65 71 71
39 34 32 31 30 28 28 30 28 29 32 37 38 38 35 34 36 38 38 39 40 40 40 45 49 53 56 59 61 64 72 71
51 46 42 38 34 31 31 32 32 30 29 30 31 33 36 36 36 38 38 38 40 43 44 51 51 54 56 57 59 67 70 71
64 58 54 49 42 40 38 37 36 35 35 34 33 29 29 30 31 32 34 34 38 46 48 51 50 54 53 54 58 64 67 74
57 53 58 59 54 47 43 44 40 39 40 38 37 37 31 30 32 31 35 33 34 37 36 36 41 42 43 50 60 66 72 74
56 53 52 51 53 57 54 47 45 43 40 41 42 39 37 35 35 36 42 41 39 36 36 37 37 41 48 61 67 74 75 74
49 50 46 48 50 50 52 56 52 50 48 44 43 43 43 38 38 40 45 49 50 47 47 46 44 50 62 71 77 80 79 79